This demonstration page uses our WeatherBlox Daily Observations layout. Learn more.

Left ArrowRight Arrow

38.20091, -84.87328

Hourly Observations for March 22, 2022

Temp ( °F °C ) Dew Point ( °F °C ) Humidity (%) Winds ( mph kmh ) Pressure ( in mb ) Visibility ( mi km ) Precip ( " mm )
12:53 am 00:53 Clear 53 11.7 38 3.3 57 57 E 3 6 30.06 1018 10 16 0.00 0.00
1:53 am 01:53 Clear 52 11.1 41 5 66 66 Calm 30.06 1018 10 16 0.00 0.00
2:53 am 02:53 Clear 52 11.1 38 3.3 59 59 SSE 5 7 30.07 1018 10 16 0.00 0.00
3:53 am 03:53 Clear 51 10.6 39 3.9 64 64 E 3 6 30.04 1017 10 16 0.00 0.00
4:53 am 04:53 Mostly Clear 54 12.2 37 2.8 53 53 ESE 5 7 30.01 1016 10 16 0.00 0.00
5:53 am 05:53 Cloudy 55 12.8 36 2.2 49 49 Calm 30.02 1017 10 16 0.00 0.00
6:53 am 06:53 Cloudy 53 11.7 39 3.9 59 59 N 3 6 30.02 1017 10 16 0.00 0.00
7:53 am 07:53 Mostly Cloudy 52 11.1 39 3.9 61 61 NNW 3 6 30.06 1018 10 16 0.00 0.00
8:53 am 08:53 Cloudy 53 11.7 42 5.6 66 66 NNW 3 6 30.11 1020 10 16 0.00 0.00
9:53 am 09:53 Cloudy 56 13.3 38 3.3 51 51 E 6 9 30.08 1019 10 16 0.00 0.00
10:53 am 10:53 Cloudy 60 15.6 39 3.9 46 46 ENE 5 7 30.06 1018 10 16 0.00 0.00
11:53 am 11:53 Cloudy 64 17.8 39 3.9 40 40 VRB 3 6 30.04 1017 10 16 0.00 0.00
12:53 pm 12:53 Mostly Cloudy 67 19.4 38 3.3 35 35 SSE 16 26 29.99 1016 10 16 0.00 0.00
1:53 pm 13:53 Partly Cloudy 69 20.6 40 4.4 35 35 SE 15 24 29.93 1014 10 16 0.00 0.00
2:53 pm 14:53 Cloudy 71 21.7 40 4.4 32 32 SE 14 22 29.87 1012 10 16 0.00 0.00
3:53 pm 15:53 Cloudy 72 22.2 40 4.4 31 31 SE 21 33 29.83 1010 10 16 0.00 0.00
4:53 pm 16:53 Partly Cloudy 73 22.8 40 4.4 30 30 SE 17 28 29.80 1009 10 16 0.00 0.00
5:53 pm 17:53 Mostly Cloudy 72 22.2 42 5.6 34 34 SE 14 22 29.78 1008 10 16 0.00 0.00
6:53 pm 18:53 Partly Cloudy 71 21.7 39 3.9 31 31 SE 12 19 29.76 1008 10 16 0.00 0.00
7:53 pm 19:53 Sunny 71 21.7 37 2.8 29 29 SE 12 19 29.74 1007 10 16 0.00 0.00
8:53 pm 20:53 Mostly Clear 69 20.6 35 1.7 29 29 ESE 10 17 29.73 1007 10 16 0.00 0.00
9:53 pm 21:53 Mostly Cloudy 70 21.1 34 1.1 27 27 SE 12 19 29.72 1006 10 16 0.00 0.00
10:53 pm 22:53 Cloudy with Light Rain 68 20 38 3.3 33 33 S 9 15 29.73 1007 10 16 0.00 0.00
11:53 pm 23:53 Cloudy with Light Rain 65 18.3 43 6.1 45 45 S 13 20 29.75 1007 10 16 0.00 0.00

Powered by AerisWeather